AirNav   Pilot Hours Calculator
 
 917 users online  

5I2 Flora Municipal Airport
Flora, Indiana, USA

GOING TO FLORA?


FAA INFORMATION EFFECTIVE 28 FEBRUARY 2019

Location

FAA Identifier: 5I2
Lat/Long: 40-32-23.1300N / 086-32-53.9990W
40-32.385500N / 086-32.899983W
40.5397583 / -86.5483331
(estimated)
Elevation: 710 ft. / 216 m (estimated)
Variation: 02W (1985)
From city: 2 miles SW of FLORA, IN
Time zone: UTC -5 (UTC -4 during Daylight Saving Time)
Zip code: 46929

Airport Operations

Airport use: Open to the public
Activation date: 02/1967
Control tower: no
ARTCC: CHICAGO CENTER
FSS: TERRE HAUTE FLIGHT SERVICE STATION
NOTAMs facility: HUF (NOTAM-D service available)
Attendance: UNATNDD
Wind indicator: lighted
Segmented circle: no
Lights: SS-SR

Airport Communications

CTAF: 122.9
WX AWOS-3P at GGP (13 nm NE): 118.5 (574-737-7310)
WX AWOS-3P at MCX (14 nm NW): 124.05 (574-583-0531)
WX AWOS-3 at FKR (16 nm S): 124.325 (765-654-0328)
WX ASOS at LAF (19 nm SW): PHONE 765-743-9687

Nearby radio navigation aids

VOR radial/distance  VOR name  Freq  Var
GUSr253/19.1GRISSOM VORTAC108.4502W
OKKr277/22.4KOKOMO VORTAC113.5005W
BVTr091/23.8BOILER VORTAC115.1001E
MZZr277/39.7MARION VOR/DME108.6003W

 
NDB name  Hdg/Dist  Freq  Var  ID
CRAWFORDSVILLE031/37.538804WCFJ -.-. ..-. .---

Airport Services

Parking: tiedowns
Airframe service: NONE
Powerplant service: NONE
Bottled oxygen: NONE
Bulk oxygen: NONE

Runway Information

Runway 9/27

Dimensions: 2143 x 93 ft. / 653 x 28 m
Surface: turf, in good condition
Runway edge lights: low intensity
RUNWAY 9  RUNWAY 27
Latitude: 40-32.418833N40-32.418833N
Longitude: 086-33.151833W086-32.681167W
Elevation: 710.0 ft.710.0 ft.
Traffic pattern: leftleft
Runway end identifier lights: nono
Obstructions: 15 ft. road, 285 ft. from runway, 20:1 slope to clear10 ft. crops, 200 ft. from runway, 20:1 slope to clear

Airport Ownership and Management from official FAA records

Ownership: Publicly-owned
Owner: TOWN OF FLORA
4 EAST MAIN ST
FLORA, IN 46929
Phone 574-967-4844
Manager: JORETTA TINSMAN
4 EAST MAIN ST
FLORA, IN 46929
Phone (574) 967-4844

Airport Operational Statistics

Aircraft based on the field: 7
Single engine airplanes: 4
Ultralights: 3
    
Aircraft operations: avg 38/week *
75% local general aviation
25% transient general aviation
* for 12-month period ending 31 December 2016

Instrument Procedures

There are no published instrument procedures at 5I2.

Some nearby airports with instrument procedures:

KGGP - Logansport/Cass County Airport (13 nm NE)
KMCX - White County Airport (14 nm NW)
KFKR - Frankfort Municipal Airport (16 nm S)
KGUS - Grissom Air Reserve Base (19 nm E)
KLAF - Purdue University Airport (19 nm SW)
 
Loc | Ops | Rwys | IFR | FBO | Links
Com | Nav | Svcs | Stats | Notes
Area around 5I2 (Flora Municipal Airport)
 
Road maps at: MapQuest Bing Google
 
Aerial photo
WARNING: Photo may not be current or correct
Aerial photo of 5I2 (Flora Municipal Airport)
Do you have a better or more recent aerial photo of Flora Municipal Airport that you would like to share? If so, please send us your photo.

 
Sectional chart

 
Airport distance calculator
Flying to Flora Municipal Airport? Find the distance to fly.

From to 5I2

Sunrise and sunset
Times for 24-Mar-2019
 Local
(UTC-4)
 Zulu
(UTC)
Morning civil twilight07:1711:17
Sunrise07:4411:44
Sunset20:0100:01
Evening civil twilight20:2800:28

Current date and time
Zulu (UTC)  24-Mar-2019 20:36:44
Local (UTC-4)  24-Mar-2019 16:36:44
 
METAR
KGGP 
13nm NE 
242013Z AUTO 27006KT 10SM -RA OVC018 09/07 A3008 RMK AO2 P0001
KMCX 
14nm NW 
242015Z AUTO 14004KT 10SM RA SCT025 BKN035 OVC065 10/08 A3005 RMK AO2 T00950078
KFKR 
16nm S 
242015Z AUTO 17004KT 10SM SCT020 OVC027 11/08 A3008 RMK AO2 T01080076 TSNO
KGUS 
19nm E 
241956Z 22008KT 10SM -RA BKN039 BKN048 OVC060 09/09 A3007 RMK AO2A SLP190 P0001 T00940094 $
KLAF 
20nm W 
241954Z 17005KT 10SM FEW021 BKN050 OVC100 10/08 A3006 RMK AO2 RAB03E51 SLP180 P0001 T01000078
KOKK 
22nm E 
241956Z AUTO 19004KT 10SM -RA BKN026 BKN046 OVC055 09/07 A3008 RMK AO2 SLP193 T00890072
TAF
KGUS 
19nm E 
241900Z 2419/2601 22009KT 8000 -RA BKN020 OVC030 620505 QNH3003INS BECMG 2506/2507 04006KT 9000 -RA OVC005 620604 QNH3006INS TEMPO 2511/2518 06015G25KT 9999 SCT020 BKN050 BECMG 2517/2518 04010G18KT 9999 NSW FEW080 QNH3022INS TX12/2421Z TN04/2512Z
KLAF 
20nm W 
241720Z 2418/2518 20007KT 6SM -SHRA BR OVC045 FM242200 14005KT 6SM -SHRA BR OVC025 FM250400 04006KT P6SM VCSH OVC019 FM251000 04010G18KT P6SM OVC011 FM251500 05012G20KT P6SM SCT018
NOTAMs
Click for the latest NOTAMs
NOTAMs are issued by the DoD/FAA and will open in a separate window not controlled by AirNav.

 

 
 

Would you like to see your business listed on this page?

 If your business provides an interesting product or service to pilots, flight crews, aircraft, or users of the Flora Municipal Airport, you should consider listing it here.  To start the listing process, click on the button below
 
Add a business
 

Other Pages about Flora Municipal Airport

Update a link
 
Copyright © AirNav, LLC. All rights reserved. Privacy Policy  Contact